Regional Weather Roundup
Issued by NWS

Home | Current Version | Previous Version | Graphics & Text | Print | Product List | Glossary On
Versions: 1 2 3 4 5 6 7 8 9 10 11 12 13 14 15 16 17 18 19 20 21 22 23 24 25 26 27 28 29 30 31 32 33 34 35 36 37 38 39 40 41 42 43 44 45 46 47 48 49 50
194
ASUS43 KFSD 171602
RWRSD

WEATHER ROUNDUP FOR SOUTH DAKOTA
NATIONAL WEATHER SERVICE SIOUX FALLS SD
1100 AM CDT TUE OCT 17 2017

NOTE: "FAIR" INDICATES FEW OR NO CLOUDS BELOW 12,000 FEET WITH NO
SIGNIFICANT WEATHER AND/OR OBSTRUCTIONS TO VISIBILITY.


SDZ001>005-009-010-012>017-171700-
NORTHWEST AND NORTH CENTRAL SOUTH DAKOTA

CITY           SKY/WX    TMP DP  RH WIND       PRES   REMARKS
BUFFALO          N/A     67  25  20 SW17      29.93F
FAITH            N/A     66  26  22 W13       29.99F
MOBRIDGE       SUNNY     56  37  49 S7        29.95S
$$

SDZ012>016-024>037-041>051-057-063-072>074-171700-
SOUTHWEST AND SOUTH CENTRAL SOUTH DAKOTA

CITY           SKY/WX    TMP DP  RH WIND       PRES   REMARKS
RAPID CTY ARPT SUNNY     63  31  30 SW3       30.06S
PIERRE         SUNNY     53  35  50 SW10      30.01F
CUSTER         SUNNY     61  26  26 N3        30.16S
ELLSWORTH AFB  SUNNY     66  27  23 SW9       30.05S
PHILIP         SUNNY     59  36  42 W14       30.03F
PINE RIDGE     SUNNY     55  32  41 SW6       30.11S
SPEARFISH      FAIR      63  28  27 W5        30.08S
WINNER         FAIR      65  40  39 SW9       30.05S
$$

SDZ004>011-016>023-039-040-171700-
NORTHEAST SOUTH DAKOTA

CITY           SKY/WX    TMP DP  RH WIND       PRES   REMARKS
ABERDEEN       SUNNY     56  41  57 S8        29.99R
WATERTOWN      SUNNY     55  44  66 S7        30.00F
BROOKINGS      SUNNY     57  43  59 S3        30.04
SISSETON         N/A     66  40  38 S9        29.95F
$$

SDZ017-020-022-023-036>040-048>070-171700-
SOUTHEAST SOUTH DAKOTA

CITY           SKY/WX    TMP DP  RH WIND       PRES   REMARKS
SIOUX FALLS    SUNNY     61  48  62 S3        30.05S
HURON          SUNNY     58  43  57 MISG      30.01F
MITCHELL       SUNNY     60  44  55 S5        30.04F
YANKTON        SUNNY     59  47  64 CALM      30.06S
$$

ABBREVIATIONS USED IN REMARKS
   TC - TEMPERATURE IN CELSIUS
  WCI - WIND CHILL INDEX
   HX - HEAT INDEX
  VSB - VISIBILITY





USA.gov is the U.S. government's official web portal to all federal, state and local government web resources and services.